Retour au catalogue

OPS 4682 DEB

ActifPO
NORAD 13131·DEBRIS·🇺🇸 United States

Lancé Apr 3, 1965 depuis Vandenberg Space Force Base

Loading…

Prochains Passages (prochaines 24 heures)

TLE

FraisSource: Space-Track

Époque: Sep 12, 2026, 01:18 UTC

1 13131U 65027H   26255.05466644  .00000596  00000-0  20059-2 0  9992
2 13131  90.2380 355.2665 0030361 194.7183 290.2118 12.98085293641978

Suivez OPS 4682 DEB en temps réel avec AllMySat

Download on the App Store